Weather History for Faribault, MN

Change the Weather History Date:

Saturday, January 5, 2013

  Actual Average Record
Temperature  
Mean Temperature 14 °F -  
Max Temperature 23 °F 20 °F 50 °F (2012)
Min Temperature 6 °F 0 °F -24 °F (1979)
Degree Days  
Heating Degree Days 50    
Moisture  
Dew Point 12 °F    
Average Humidity 89    
Maximum Humidity 100    
Minimum Humidity 74    
Precipitation  
Precipitation 0.00 in - - ()
Sea Level Pressure  
Sea Level Pressure 29.96 in    
Wind  
Wind Speed 6 mph (SW)    
Max Wind Speed 14 mph    
Max Gust Speed 20 mph    
Visibility 10 miles    
Events      
Averages and records for this station are not official NWS values.
T = Trace of Precipitation, MM = Missing Value Source: NWS Daily Summary

Daily Weather History Graph

Daily Weather History Graph

Search for Another Location

Airport:

Trip Planner

Search our weather history database for the weather conditions in past years. The results will help you decide how hot, cold, wet, or windy it might be!

Date:

Astronomy

Jan. 05, 2013 Rise Set
Actual Time 7:48 AM CST 4:48 PM CST
Civil Twilight 7:16 AM CST 5:21 PM CST
Nautical Twilight 6:39 AM CST 5:58 PM CST
Astronomical Twilight 6:04 AM CST 6:33 PM CST
Moon 12:48 AM CST (1/5) 11:45 AM CST (1/5)
Length of Visible Light 10h 05m
Length of Day
8h 59m
Last Quarter, 44% of the Moon is Illuminated
Jan 5
Last Quarter
Jan 11
New
Jan 18
First Quarter
Jan 26
Full
Feb 3
Last Quarter

Hourly Weather History & Observations

Time (CST) Temp. Windchill Dew Point Humidity Pressure Visibility Wind Dir Wind Speed Gust Speed Precip Events Conditions
12:14 AM 10.4 °F 4.0 °F 8.6 °F 92% 30.08 in 10.0 mi SSE 3.5 mph - N/A   Clear
12:34 AM 10.4 °F 0.8 °F 10.4 °F 100% 30.08 in 10.0 mi South 5.8 mph - N/A   Clear
12:54 AM 12.2 °F 1.7 °F 10.4 °F 92% 30.07 in 10.0 mi South 6.9 mph - N/A   Clear
1:14 AM 12.2 °F 0.7 °F 10.4 °F 92% 30.08 in 10.0 mi South 8.1 mph - N/A   Clear
1:34 AM 12.2 °F 1.7 °F 12.2 °F 100% 30.08 in 10.0 mi South 6.9 mph - N/A   Clear
1:54 AM 12.2 °F 2.9 °F 12.2 °F 100% 30.07 in 10.0 mi South 5.8 mph - N/A   Clear
2:14 AM 12.2 °F 4.3 °F 10.4 °F 92% 30.07 in 10.0 mi South 4.6 mph - N/A   Clear
2:34 AM 10.4 °F - 10.4 °F 100% 30.06 in 10.0 mi Calm Calm - N/A   Clear
2:54 AM 8.6 °F - 8.6 °F 100% 30.05 in 10.0 mi Calm Calm - N/A   Clear
3:14 AM 8.6 °F - 8.6 °F 100% 30.05 in 10.0 mi Calm Calm - N/A   Clear
3:34 AM 6.8 °F - 5.0 °F 92% 30.03 in 10.0 mi Calm Calm - N/A   Clear
3:54 AM 10.4 °F -1.5 °F 10.4 °F 100% 30.02 in 10.0 mi South 8.1 mph - N/A   Clear
4:14 AM 12.2 °F 4.3 °F 10.4 °F 92% 30.01 in 10.0 mi SSE 4.6 mph - N/A   Clear
4:34 AM 12.2 °F 1.7 °F 10.4 °F 92% 30.00 in 10.0 mi South 6.9 mph - N/A   Clear
4:54 AM 12.2 °F - 10.4 °F 92% 30.01 in 10.0 mi Calm Calm - N/A   Clear
5:14 AM 10.4 °F - 8.6 °F 92% 30.00 in 10.0 mi Calm Calm - N/A   Clear
5:34 AM 10.4 °F -0.4 °F 8.6 °F 92% 29.99 in 10.0 mi SSE 6.9 mph - N/A   Clear
5:54 AM 10.4 °F 2.2 °F 8.6 °F 92% 30.00 in 10.0 mi SSW 4.6 mph - N/A   Clear
6:14 AM 10.4 °F -1.5 °F 8.6 °F 92% 29.99 in 10.0 mi South 8.1 mph - N/A   Clear
6:34 AM 10.4 °F 4.0 °F 8.6 °F 92% 29.99 in 10.0 mi SSW 3.5 mph - N/A   Clear
7:14 AM 8.6 °F -3.7 °F 8.6 °F 100% 29.97 in 7.0 mi SSE 8.1 mph - N/A   Clear
7:34 AM 10.4 °F -1.5 °F 10.4 °F 100% 29.96 in 10.0 mi South 8.1 mph - N/A   Clear
7:54 AM 12.2 °F -0.2 °F 10.4 °F 92% 29.96 in 7.0 mi South 9.2 mph - N/A   Clear
8:14 AM 12.2 °F 1.7 °F 10.4 °F 92% 29.96 in 7.0 mi South 6.9 mph - N/A   Clear
8:34 AM 12.2 °F 0.7 °F 10.4 °F 92% 29.95 in 7.0 mi South 8.1 mph - N/A   Clear
8:54 AM 12.2 °F 0.7 °F 10.4 °F 92% 29.95 in 7.0 mi South 8.1 mph - N/A   Clear
9:14 AM 12.2 °F 2.9 °F 10.4 °F 92% 29.95 in 10.0 mi South 5.8 mph - N/A   Clear
9:54 AM 15.8 °F 8.6 °F 12.2 °F 86% 29.93 in 10.0 mi South 4.6 mph - N/A   Clear
10:14 AM 17.6 °F 8.2 °F 12.2 °F 79% 29.93 in 10.0 mi South 6.9 mph - N/A   Clear
10:54 AM 19.4 °F 7.9 °F 15.8 °F 86% 29.93 in 10.0 mi SSW 10.4 mph - N/A   Clear
11:14 AM 19.4 °F 6.6 °F 15.8 °F 86% 29.92 in 10.0 mi South 12.7 mph 17.3 mph N/A   Clear
11:34 AM 19.4 °F 6.6 °F 15.8 °F 86% 29.91 in 10.0 mi SSW 12.7 mph 19.6 mph N/A   Clear
11:54 AM 19.4 °F 6.6 °F 15.8 °F 86% 29.90 in 10.0 mi SW 12.7 mph - N/A   Clear
12:14 PM 21.2 °F 10.1 °F 15.8 °F 80% 29.90 in 10.0 mi SSW 10.4 mph 16.1 mph N/A   Clear
12:34 PM 21.2 °F 9.5 °F 15.8 °F 80% 29.89 in 10.0 mi SW 11.5 mph - N/A   Clear
12:54 PM 21.2 °F 10.1 °F 15.8 °F 80% 29.88 in 10.0 mi SSW 10.4 mph - N/A   Clear
1:14 PM 21.2 °F 11.7 °F 15.8 °F 80% 29.86 in 10.0 mi SW 8.1 mph - N/A   Clear
1:34 PM 21.2 °F 11.7 °F 15.8 °F 80% 29.86 in 10.0 mi SW 8.1 mph - N/A   Clear
1:54 PM 23.0 °F 13.1 °F 15.8 °F 74% 29.86 in 10.0 mi WSW 9.2 mph - N/A   Clear
2:14 PM 21.2 °F 12.6 °F 15.8 °F 80% 29.85 in 10.0 mi SW 6.9 mph - N/A   Clear
2:34 PM 21.2 °F 13.6 °F 15.8 °F 80% 29.86 in 10.0 mi WSW 5.8 mph - N/A   Clear
2:54 PM 21.2 °F 12.6 °F 15.8 °F 80% 29.86 in 10.0 mi SSW 6.9 mph - N/A   Clear
3:14 PM 21.2 °F 13.6 °F 15.8 °F 80% 29.86 in 10.0 mi SSW 5.8 mph - N/A   Clear
3:34 PM 21.2 °F 13.6 °F 15.8 °F 80% 29.86 in 10.0 mi SW 5.8 mph - N/A   Clear
3:54 PM 21.2 °F 13.6 °F 15.8 °F 80% 29.86 in 10.0 mi WSW 5.8 mph - N/A   Clear
4:14 PM 21.2 °F 13.6 °F 15.8 °F 80% 29.87 in 10.0 mi SW 5.8 mph - N/A   Clear
5:14 PM 17.6 °F 10.7 °F 14.0 °F 86% 29.88 in 10.0 mi SW 4.6 mph - N/A   Clear
5:34 PM 17.6 °F 12.3 °F 12.2 °F 79% 29.89 in 10.0 mi SW 3.5 mph - N/A   Clear
5:54 PM 17.6 °F 9.3 °F 14.0 °F 86% 29.90 in 10.0 mi West 5.8 mph - N/A   Clear
6:14 PM 19.4 °F 7.9 °F 14.0 °F 80% 29.91 in 10.0 mi West 10.4 mph - N/A   Clear
6:34 PM 19.4 °F 8.6 °F 14.0 °F 80% 29.91 in 10.0 mi West 9.2 mph - N/A   Scattered Clouds
6:54 PM 17.6 °F 6.4 °F 14.0 °F 86% 29.92 in 10.0 mi West 9.2 mph - N/A   Clear
7:13 PM 17.6 °F 5.7 °F 14.0 °F 86% 29.93 in 10.0 mi West 10.4 mph - N/A   Scattered Clouds
7:54 PM 17.6 °F 5.0 °F 14.0 °F 86% 29.94 in 10.0 mi West 11.5 mph - N/A   Scattered Clouds
8:14 PM 17.6 °F 5.7 °F 14.0 °F 86% 29.94 in 10.0 mi West 10.4 mph - N/A   Scattered Clouds
8:34 PM 17.6 °F 5.0 °F 14.0 °F 86% 29.95 in 10.0 mi WNW 11.5 mph - N/A   Scattered Clouds
8:54 PM 15.8 °F 2.1 °F 12.2 °F 86% 29.96 in 10.0 mi WNW 12.7 mph - N/A   Clear
9:14 PM 15.8 °F 4.2 °F 12.2 °F 86% 29.96 in 10.0 mi WNW 9.2 mph - N/A   Scattered Clouds
9:34 PM 15.8 °F 7.2 °F 12.2 °F 86% 29.96 in 10.0 mi WNW 5.8 mph - N/A   Scattered Clouds
9:54 PM 12.2 °F -0.2 °F 10.4 °F 92% 29.96 in 10.0 mi West 9.2 mph - N/A   Clear
10:14 PM 12.2 °F -0.2 °F 10.4 °F 92% 29.99 in 10.0 mi West 9.2 mph - N/A   Clear
10:34 PM 12.2 °F -3.1 °F 10.4 °F 92% 30.00 in 10.0 mi West 13.8 mph - N/A   Clear
10:54 PM 10.4 °F -3.3 °F 8.6 °F 92% 30.01 in 10.0 mi West 10.4 mph - N/A   Clear
11:14 PM 10.4 °F -1.5 °F 8.6 °F 92% 30.01 in 10.0 mi West 8.1 mph - N/A   Clear
11:34 PM 10.4 °F -3.3 °F 8.6 °F 92% 30.01 in 10.0 mi West 10.4 mph - N/A   Clear
11:53 PM 10.4 °F -3.3 °F 8.6 °F 92% 30.01 in 10.0 mi West 10.4 mph - N/A   Clear